Regional Weather Roundup
Issued by NWS Green Bay, WI

Home | Current Version | Previous Version | Text Only | Print | Product List | Glossary On
Versions: 1 2 3 4 5 6 7 8 9 10 11 12 13 14 15 16 17 18 19 20 21 22 23 24 25 26 27 28 29 30 31 32 33 34 35 36 37 38 39 40 41 42 43 44 45 46 47 48 49 50
000
ASUS43 KGRB 200911
RWRGRB

NORTH-CENTRAL AND NORTHEAST WISCONSIN REGIONAL WEATHER ROUNDUP
NATIONAL WEATHER SERVICE GREEN BAY WI
300 AM CST MON FEB 20 2017

WIZ005-009-010>012-018-019-201000-
NORTH CENTRAL WISCONSIN

CITY           SKY/WX    TMP DP  RH WIND       PRES   REMARKS
IRONWOOD       PTCLDY    44  32  62 SE12      30.01S
MANITOWISH WTR PTCLDY    39  31  74 SE8       30.04F
ARBOR VITAE    CLOUDY    40  31  70 SE8       30.05F
EAGLE RIVER    PTCLDY    37  29  72 SE5       30.09R
LAND O LAKES   CLOUDY    38  30  73 SE8       30.10S
RHINELANDER    CLOUDY    39  31  72 E9        30.08S
PHILLIPS       CLOUDY    41  33  72 SE6       30.01F
ANTIGO         CLOUDY    35  30  83 SE9       30.09F
TOMAHAWK       CLOUDY    39  29  69 SE5       30.06F
MERRILL        NOT AVBL
$$

WIZ013-073-201000-
NORTHEAST WISCONSIN

CITY           SKY/WX    TMP DP  RH WIND       PRES   REMARKS
IRON MOUNTAIN  CLEAR     31  26  82 CALM      30.14R
MARINETTE      CLOUDY    31  29  92 E5        30.16F
OCONTO         PTCLDY    31  29  92 CALM      30.15R
$$

WIZ017-030-035>037-045-201000-
CENTRAL WISCONSIN

CITY           SKY/WX    TMP DP  RH WIND       PRES   REMARKS
MEDFORD        CLOUDY    39  31  75 SE8       30.02S
WAUSAU         CLOUDY    37  30  75 E8        30.07S
MOSINEE        CLOUDY    37  32  81 E8        30.07S
MARSHFIELD     CLOUDY    39  31  72 SE7       30.03S
WISC RAPIDS    CLOUDY    40  32  73 SE9       30.07S
STEVENS POINT  CLOUDY    36  29  76 E6        30.08S
WAUPACA        CLOUDY    36  31  82 CALM      30.10F
SHAWANO        CLOUDY    34  31  89 NE6       30.12F
CLINTONVILLE   CLOUDY    32  30  93 NE3       30.11F
WAUTOMA        CLOUDY    36  30  79 NE3       30.10S
$$

WIZ038-039-048-051-201000-
FOX VALLEY

CITY           SKY/WX    TMP DP  RH WIND       PRES   REMARKS
NWS GREEN BAY  CLOUDY    35  32  88 NE5       30.13S
APPLETON       PTCLDY    37  28  70 E5        30.09F
OSHKOSH        CLOUDY    38  29  70 SE6       30.09F
FOND DU LAC    PTCLDY    41  29  62 SE8       30.10F
$$

WIZ022-050-052-201000-
EAST CENTRAL WISCONSIN

CITY           SKY/WX    TMP DP  RH WIND       PRES   REMARKS
EPHRAIM        FAIR      35  34  96 SE7       30.15S
WASHINGTON ISL FAIR      37  31  79 E8        30.17S
STURGEON BAY   PTCLDY    37  33  85 SE10      30.15F
MANITOWOC      PTCLDY    31  29  92 MISG      30.15S
SHEBOYGAN      MIX PCPN  30  28  92 NE3       30.14S
$$

LMZ563-521-522-541>543-201000-
LAKESHORE

STATION/POSITION TIME  TEMP    WIND        PRES    VSBY  WAVE
                       AIR SEA DIR/SP/G                  HT/PER
                 (UTC) (F)     (DEG/KT/KT) (MB)    (MI)  (FT/S)
SHEBOYGAN LKSHOR 0900   37      70/  1/  2 1021.0F
KEWAUNEE LKSHORE 0842   37      60/  1/  3 1020.4F
ALGOMA MARINA    0840           80/  5/  6   N/A
NORTHPORT PIER   0840   35     140/  4/  5 1021.7S
SISTER BAY LKSHO 0820   38     120/ 10/ 14   N/A
CHAMBERS ISLAND  0840   34      50/  3/  3 1021.0S
MENOMINEE LKSHOR 0842   35      70/  6/  7 1020.3F
$$



USA.gov is the U.S. government's official web portal to all federal, state and local government web resources and services.